{"data":{"norad_id":47746,"intl_designator":"2021-017AA","name":"STARLINK-2160","alt_names":[],"object_type":"PAYLOAD","status":"ACTIVE","operator":null,"country":"US","launch_date":"2021-03-04","launch_site_code":"AFETR","launch_vehicle":null,"mission":null,"orbit_class":"UNKNOWN","rcs_meters":null,"size_class":null,"mass_kg":null,"dimensions":null,"purposes":["comms"],"wikipedia_slug":null,"has_3d_model":false,"image_url":null,"decayed_at":null,"tle_current":{"epoch":"2026-05-25T03:25:35.983776Z","epoch_age_seconds":76895,"freshness":"FRESH","line1":"1 47746U 21017AA  26145.14277759  .00044959  00000+0  94695-3 0  9995","line2":"2 47746  53.1580 204.9254 0005473   1.8712 358.2315 15.44833837289592","mean_motion":15.44833837,"eccentricity":0.0005473,"inclination_deg":53.158,"raan_deg":204.9254,"arg_perigee_deg":1.8712,"mean_anomaly_deg":358.2315,"bstar":0.00094695,"rev_number":28959,"period_min":93.213908545428,"perigee_km":428.13923815817,"apogee_km":435.59346782836,"semimajor_km":6810.0033529933,"source":"CELESTRAK","updated_at":"2026-05-25T13:38:16.566778Z"}}}